RULLOA Weather Reports


Display with metric or nautical units.
time (UTC)temp
F
wind
direction
speed
MPH
gust
MPH
rain 1hr
in
rain 24hr
in
rain mn
in
humidity
%
barometer
mb
20260507014537 81 339 0.0 0.0 0.03 0.03 0.03 1 1009.4
20260507013037 81 283 0.0 0.0 0.01 0.01 0.01 1 1009.0
20260507011533 81 321 0.0 0.0 0.00 0.00 0.00 1 1008.7
20260507010032 82 299 0.0 0.0 0.00 0.00 0.00 1 1008.5
20260507004519 82 319 0.0 0.0 0.00 0.00 0.00 1 1008.1
20260507003015 84 325 0.0 3.0 0.00 0.00 0.00 1 1007.9
20260507001511 85 28 0.0 0.0 0.00 0.00 0.00 1 1007.5
20260507000006 86 42 0.0 0.0 0.00 0.00 0.00 20 1007.3
20260506234508 86 35 0.0 0.0 0.00 0.00 0.00 30 1007.0
20260506233006 87 35 0.0 0.0 0.00 0.00 0.00 36 1006.7
20260506231505 87 77 0.0 0.0 0.00 0.00 0.00 37 1006.5
20260506230004 88 123 0.0 0.0 0.00 0.00 0.00 53 1006.2
20260506224514 88 123 0.0 0.0 0.00 0.00 0.00 52 1006.0
20260506223003 88 123 0.0 0.0 0.00 0.00 0.00 55 1005.8
20260506221503 87 123 0.0 0.0 0.00 0.00 0.00 56 1005.7
20260506220002 88 121 0.0 0.0 0.00 0.00 0.00 57 1005.7
20260506214501 88 134 0.0 0.0 0.00 0.00 0.00 58 1005.7
20260506213100 88 127 0.0 0.0 0.00 0.00 0.00 58 1005.7
20260506213002 88 126 0.0 0.0 0.00 0.00 0.00 57 1005.7
20260506211559 88 107 0.0 0.0 0.00 0.00 0.00 56 1005.8
20260506210057 88 118 0.0 0.0 0.00 0.00 0.00 51 1005.9
20260506204555 87 122 0.0 0.0 0.00 0.00 0.00 53 1005.8
20260506203059 87 115 0.0 0.0 0.00 0.00 0.00 54 1005.8
20260506201553 87 119 0.0 0.0 0.00 0.00 0.00 53 1005.9
20260506200051 87 111 0.0 0.0 0.00 0.00 0.00 46 1005.9
20260506194552 87 80 0.0 0.0 0.00 0.00 0.00 44 1006.1
20260506193050 87 115 0.0 0.0 0.00 0.00 0.00 42 1006.3
20260506191544 86 108 0.0 0.0 0.00 0.00 0.00 48 1006.6
20260506190042 87 110 0.0 0.0 0.00 0.00 0.00 40 1006.8
20260506184540 86 89 0.0 0.0 0.00 0.00 0.00 41 1006.8
20260506183041 86 96 0.0 0.0 0.00 0.00 0.00 43 1007.0
20260506181547 87 148 0.0 0.0 0.00 0.00 0.00 40 1007.1
20260506180032 86 98 0.0 0.0 0.00 0.00 0.00 32 1007.4
20260506174529 86 145 0.0 0.0 0.00 0.00 0.00 31 1007.5
20260506173025 86 116 0.0 0.0 0.00 0.00 0.00 33 1007.9
20260506164536 84 106 0.0 0.0 0.00 0.00 0.00 18 1008.9
20260506163032 84 96 0.0 0.0 0.00 0.00 0.00 22 1009.1
20260506161526 84 95 0.0 0.0 0.00 0.00 0.00 8 1009.4
20260506160035 84 54 0.0 0.0 0.00 0.00 0.00 1 1009.7
20260506154518 84 76 0.0 0.0 0.00 0.00 0.00 1 1009.8
20260506153013 83 58 0.0 0.0 0.00 0.00 0.00 1 1010.0
20260506151509 84 57 0.0 0.0 0.00 0.00 0.00 1 1010.1
20260506150004 83 28 0.0 0.0 0.00 0.00 0.00 1 1010.1
20260506144609 82 38 0.0 0.0 0.00 0.00 0.00 1 1010.1
20260506143055 82 31 0.0 0.0 0.00 0.00 0.00 1 1010.2
20260506141552 82 15 0.0 0.0 0.00 0.00 0.00 1 1010.4
20260506140047 82 30 0.0 0.0 0.00 0.00 0.00 1 1010.4
20260506134546 81 36 0.0 0.0 0.00 0.00 0.00 1 1010.6
20260506133037 79 50 0.0 0.0 0.00 0.00 0.00 1 1010.6
20260506131545 78 40 0.0 0.0 0.00 0.00 0.00 1 1010.7
20260506130037 77 40 0.0 0.0 0.00 0.00 0.00 1 1010.6
20260506124524 77 40 0.0 0.0 0.00 0.00 0.00 1 1010.3
20260506123019 77 28 0.0 0.0 0.00 0.00 0.00 1 1010.1
20260506121515 77 28 0.0 0.0 0.00 0.00 0.00 1 1009.9
20260506120016 77 19 0.0 0.0 0.00 0.00 0.00 1 1009.8
20260506114506 0 0.0 0.0 0.00 0.00 0.00 1009.8
20260506113002 0 0.0 0.0 0.00 0.00 0.00 1009.7
20260506111558 76 332 0.0 0.0 0.00 0.00 0.00 1 1009.7
20260506104550 77 329 0.0 0.0 0.00 0.00 0.00 1 1009.6
20260506103045 77 329 0.0 0.0 0.00 0.00 0.00 1 1009.6
20260506101541 77 329 0.0 0.0 0.00 0.00 0.00 1 1009.6
20260506100038 77 329 0.0 0.0 0.00 0.00 0.00 1 1009.5
20260506094543 77 329 0.0 0.0 0.00 0.00 0.00 1 1009.3
20260506093034 77 329 0.0 0.0 0.00 0.00 0.00 1 1009.4
20260506091526 77 329 0.0 0.0 0.00 0.00 0.00 1 1009.4
20260506090017 77 329 0.0 0.0 0.00 0.00 0.00 1 1009.4
20260506084513 77 329 0.0 0.0 0.00 0.00 0.00 1 1009.2
20260506083009 77 329 0.0 0.0 0.00 0.00 0.00 1 1009.1
20260506081504 77 329 0.0 0.0 0.00 0.00 0.00 1 1009.0
20260506080104 77 329 0.0 0.0 0.00 0.00 0.00 1 1009.0
20260506073051 77 329 0.0 0.0 0.00 0.00 0.00 1 1009.1
20260506071549 77 329 0.0 0.0 0.00 0.00 0.00 1 1009.2
20260506061529 77 24 0.0 0.0 0.00 0.00 0.00 1 1009.8
20260506044502 77 28 0.0 0.0 0.00 0.00 0.00 1 1009.9
20260506043058 77 28 0.0 0.0 0.00 0.00 0.00 1 1009.9
20260506041555 77 29 0.0 12.0 0.00 0.00 0.00 1 1009.8
20260506040049 78 19 0.0 11.0 0.00 0.00 0.00 1 1009.6
20260506034545 78 28 0.0 9.0 0.00 0.00 0.00 1 1009.7
20260506033039 78 39 0.0 2.0 0.00 0.00 0.00 1 1009.7
20260506031536 78 36 0.0 0.0 0.00 0.00 0.00 1 1009.6
20260506030036 78 28 0.0 0.0 0.00 0.00 0.00 1 1009.4
20260506024540 78 50 0.0 1.0 0.00 0.00 0.00 1 1009.4
20260506023021 79 59 0.0 0.0 0.00 0.00 0.00 1 1009.4
20260506021518 78 61 0.0 0.0 0.00 0.00 0.00 1 1009.1
20260506020012 79 80 0.0 0.0 0.00 0.00 0.00 1 1009.0